Location: Complexul Astronomic Baia Mare
(47.6577°N, 23.5639°E)
Time: 23:53:54
(UTC+03:00)

ISS - Pass Details

Date: 02 June 2017
Orbit: 401 x 408 km, 51.6° (Epoch: 28 June)

Event Time Altitude Azimuth Distance (km) Brightness Sun altitude
Rises 23:05:04 0° 291° (WNW) 2,341 1.0 -13.4°
Reaches altitude 10° 23:07:12 10° 296° (WNW) 1,477 0.0 -13.6°
Maximum altitude 23:10:27 52° 14° (NNE) 516 -3.1 -13.9°
Enters shadow 23:13:17 13° 91° (E) 1,310 -1.6 -14.1°
